Location: Melizzano
(41.1500°N, 14.5000°E)
Time: 14:02:48
(UTC+00:00)

Meteor 2-4 Rocket - Pass Details

Date: 11 May 2021
Orbit: 799 x 909 km, 81.2° (Epoch: 19 June)

Event Time Altitude Azimuth Distance (km) Brightness Sun altitude
Exits shadow 22:47:07 62° 310° (NW) 976 4.0 -30.7°
Drops below altitude 10° 22:52:15 10° 4° (N) 2,490 7.0 -30.7°
Sets 22:54:40 0° 7° (N) 3,413 8.0 -30.7°
